www.pogodaiklimat.ru
ПОГОДА во Вране

Архив погоды во Вране (Черногория)

Время
(UTC), дата
01 19.05
02 19.05
03 19.05
04 19.05
05 19.05
06 19.05
07 19.05
08 19.05
09 19.05
10 19.05
11 19.05
12 19.05
13 19.05
14 19.05
15 19.05
16 19.05
17 19.05
18 19.05
19 19.05
20 19.05
22 19.05
23 19.05
00 20.05
02 20.05
03 20.05
04 20.05
05 20.05
06 20.05
07 20.05
08 20.05
09 20.05
10 20.05
11 20.05
12 20.05
13 20.05
14 20.05
15 20.05
16 20.05
17 20.05
18 20.05
19 20.05
21 20.05
22 20.05
23 20.05
00 21.05
01 21.05
02 21.05
03 21.05
04 21.05
05 21.05
06 21.05
07 21.05
08 21.05
09 21.05
10 21.05
11 21.05
12 21.05
13 21.05
14 21.05
15 21.05
16 21.05
17 21.05
18 21.05
19 21.05
20 21.05
21 21.05
22 21.05
23 21.05
00 22.05
01 22.05
02 22.05
03 22.05
04 22.05
05 22.05
06 22.05
07 22.05
08 22.05
09 22.05
10 22.05
11 22.05
12 22.05
13 22.05
14 22.05
15 22.05
16 22.05
17 22.05
18 22.05
19 22.05
20 22.05
21 22.05
22 22.05
23 22.05
00 23.05
01 23.05
02 23.05
03 23.05
04 23.05
05 23.05
06 23.05
07 23.05
08 23.05
09 23.05
10 23.05
11 23.05
12 23.05
13 23.05
14 23.05
15 23.05
16 23.05
17 23.05
18 23.05
19 23.05
20 23.05
21 23.05
22 23.05
00 24.05
01 24.05
02 24.05
03 24.05
04 24.05
05 24.05
06 24.05
07 24.05
08 24.05
09 24.05
10 24.05
11 24.05
12 24.05
13 24.05
14 24.05
15 24.05
16 24.05
17 24.05
18 24.05
19 24.05
20 24.05
21 24.05
22 24.05
23 24.05
00 25.05
01 25.05
02 25.05
03 25.05
05 25.05
06 25.05
07 25.05
08 25.05
09 25.05
10 25.05
11 25.05
12 25.05
13 25.05
14 25.05
15 25.05
16 25.05
17 25.05
18 25.05
19 25.05
20 25.05
21 25.05
22 25.05
23 25.05
00 26.05
01 26.05
02 26.05
Ветер
(напр.,м/с)
Видим. Явления Облачность Т
(С)
Тd
(С)
f
(%)
Тe
(С)
Тes
(С)
Комфортность P
(гПа)
Po
(гПа)
Тmin
(С)
Tmax
(С)
R
(мм)
R24
(мм)
S
(см)
штиль 0 н/о н/о +16.1 +16.1 100 +16 +16 1013.0 963.0
штиль 0 н/о н/о +16.1 +16.1 100 +16 +16 1013.3 963.3
штиль 0 н/о н/о +15.6 +15.6 100 +15 +15 1013.4 963.3
С 1 н/о н/о +15.9 +15.9 100 +17 +17 1013.5 963.4
СВ 1 н/о н/о +15.8 +15.8 100 +16 +16 1013.7 963.6
С 1 5000 м дымка 10/10 300 м
[Frnb]
+16.5 +15.7 95 +17 +17 1013.6 963.6 +15.5 1
5000 м дымка 10/10 300 м
[Sc]
+17.6 +16.6 94 1013.9 964.1
ЮВ 1 5000 м дымка 10/10 300 м
[St]
+18.4 +16.5 89 +20 +20 1013.8 964.1
Ю 2 8000 м дымка 9/9 300 м
[St]
+20.3 +17.1 82 +24 +26 комфорт 1013.7 964.3
ЮВ 1 10 км 9/9 300 м
[St]
+20.5 +17.0 80 +25 +27 комфорт 1013.0 963.7
З 2 10 км 9/9 300 м
[St]
+20.9 +16.5 76 +25 +27 комфорт 1012.7 963.5
Ю 1 15 км 6/6 600 м
[Sc]
+22.3 +16.5 70 +27 +35 душно 1012.5 963.5
В 1 20 км 6/6 600 м
[Cu Sc]
+22.7 +16.3 67 +27 +34 душно 1012.2 963.3
СВ 1 20 км 6/6 600 м
[Cu Sc]
+23.3 +16.0 64 +28 +33 душно 1011.6 962.9
СВ 2 20 км 5/5 600 м
[Cu Sc]
+23.2 +16.0 64 +28 +31 душно 1011.0 962.3
СВ 3 20 км 4/4 600 м
[Cu Sc]
+23.4 +16.8 66 +28 +30 душно 1010.3 961.6
В 1 20 км 5/3 1000 м
[Sc Ci sp]
+22.3 +17.0 72 +27 +27 душно 1010.9 962.0
штиль 0 20 км 6/4 1000 м
[Sc Ci sp]
+20.3 +15.6 74 +23 +23 комфорт 1011.2 962.0 +23.6
СВ 1 н/о н/о +18.4 +18.4 100 +20 +20 1012.0 962.4
СВ 1 н/о н/о +17.9 +17.9 100 +19 +19 1012.2 962.5
СВ 1 н/о н/о +16.6 +16.6 100 +17 +17 1012.7 962.8
СВ 1 н/о н/о +16.6 +16.6 100 +17 +17 1012.4 962.5
ЮВ 1 н/о н/о +15.6 +15.6 100 +16 +16 1012.7 962.6
В 1 н/о н/о +15.4 +15.4 100 +16 +16 1012.4 962.3
СЗ 1 н/о н/о +15.2 +15.2 100 +16 +16 1012.7 962.5
СВ 2 н/о н/о +14.8 +14.8 100 +14 +14 1012.6 962.4
ЮВ 1 н/о н/о +14.8 +14.8 100 +15 +15 1013.7 963.4
СВ 2 1000 м сильн. дождь 10/10 600 м
[Cb cap]
+15.3 +15.1 99 +15 +15 1014.2 963.9 +14.6 44
СВ 2 10 км в посл. час дождь 9/9 300 м
[Frnb]
+16.5 +15.7 95 +17 +18 1013.6 963.6
Ю 2 10 км 9/9 300 м
[St]
+17.7 +16.3 92 +18 +20 1013.8 964.0
ЮЗ 2 15 км {гроза, дождь} 8/8 600 м
[Cu Sc]
+20.3 +15.1 72 +24 +27 комфорт 1013.2 963.9
З 2 15 км 4/4 600 м
[Cu Sc]
+21.8 +15.1 66 +25 +37 комфорт 1012.6 963.6
Ю 2 15 км 4/4 600 м
[Cu Sc]
+23.3 +16.3 65 +28 +39 душно 1012.3 963.5
ЮЗ 2 15 км {дождь} 4/4 600 м
[Cu med, cong]
+24.4 +16.5 61 +28 +38 душно 1011.8 963.2 2
ЮЗ 2 20 км 5/5 600 м
[Cu med, cong]
+25.2 +16.6 59 +29 +36 душно 1010.9 962.5
СВ 2 20 км 6/6 600 м
[Cu med, cong]
+22.6 +18.0 75 +28 +32 душно 1011.1 962.3
СВ 2 20 км 8/8 600 м
[Cu Sc]
+22.8 +18.7 78 +29 +30 очень душно 1011.0 962.2
В 2 20 км 6/6 600 м
[Cu Sc]
+22.8 +19.3 81 +29 +30 очень душно 1010.7 931.9
СВ 1 20 км 8/8 1000 м
[Sc]
+22.4 +19.5 84 +28 +28 душно 1011.1 962.2
С 1 20 км 9/9 1000 м
[Sc]
+21.6 +18.5 83 +26 +26 душно 1011.5 962.5 +25.5 2
штиль 0 н/о н/о +20.2 +20.2 100 +24 +24 комфорт 1012.3 963.0
Ю 1 н/о н/о +18.6 +18.6 100 +21 +21 комфорт 1013.4 963.8
штиль 0 н/о н/о +17.5 +17.5 100 +17 +17 1013.7 963.9
В 1 н/о н/о +17.1 +17.1 100 +18 +18 1013.5 963.7
штиль 0 н/о н/о +16.3 +16.3 100 +16 +16 1013.4 963.4
штиль 0 н/о н/о +15.7 +15.7 100 +15 +15 1013.6 963.4
штиль 0 н/о н/о +15.9 +15.9 100 +16 +16 1013.5 963.4
Ю 1 н/о н/о +15.7 +15.7 100 +16 +16 1013.5 963.4
штиль 0 н/о н/о +16.0 +16.0 100 +16 +16 1013.6 963.5
Ю 1 н/о н/о +17.2 +17.2 100 +18 +18 1013.5 963.7
ЮЗ 2 10 км 9/9 300 м
[St]
+19.5 +15.9 80 +22 +23 комфорт 1013.1 963.6 +15.6
ЮЗ 3 10 км 10/10 300 м
[St]
+20.8 +15.9 74 +24 +24 комфорт 1013.0 963.8
З 4 15 км 9/9 600 м
[Sc]
+21.9 +15.9 69 +26 +27 душно 1012.6 963.6
З 4 15 км 5/5 600 м
[Cu Sc]
+23.6 +15.6 61 +27 +32 жарко 1011.9 963.2
ЮЗ 4 15 км 6/6 600 м
[Cu Sc]
+24.7 +16.0 58 +28 +33 душно 1011.6 963.1
ЮЗ 5 15 км 8/8 600 м
[Cu Sc]
+24.8 +16.3 59 +28 +30 жарко 1010.6 962.2
ЮЗ 4 15 км 8/8 600 м
[Cu Sc]
+24.6 +16.1 59 +28 +30 душно 1010.2 961.8
ЮЗ 4 15 км 8/8 600 м
[Cu Sc]
+25.2 +15.6 55 +28 +30 жарко 1009.9 961.6
З 5 15 км 6/6 600 м
[Cu Sc]
+24.0 +15.4 59 +27 +29 жарко 1009.2 960.7
З 2 15 км 10/10 600 м
[Sc]
+23.0 +15.3 62 +27 +27 душно 1009.0 960.3
З 2 10 км гроза без осадков 10/10 600 м
[Cb cap]
+22.4 +15.1 63 +26 +26 жарко 1008.8 960.0
З 3 10 км слаб. ливневой дождь, в посл. час гроза 10/10 600 м
[Cb cap]
+21.6 +16.7 74 +26 +26 душно 1009.5 960.6
З 2 10 км гроза без осадков {дождь} 9/9 600 м
[Cb cap]
+19.6 +15.5 77 +22 +22 комфорт 1010.0 960.7 +26.1 0.1
З 2 н/о н/о +17.8 +17.8 100 +18 +18 1012.1 962.4
С 1 н/о н/о +17.1 +17.1 100 +18 +18 1013.1 963.3
штиль 0 н/о н/о +15.1 +15.1 100 +15 +15 1013.1 962.9
ЮЗ 1 н/о н/о +14.7 +14.7 100 +15 +15 1013.0 962.7
З 1 н/о н/о +15.7 +15.7 100 +16 +16 1012.6 962.5
ЮЗ 1 н/о н/о +14.5 +14.5 100 +15 +15 1012.7 962.4 24
штиль 0 н/о н/о +14.4 +14.4 100 +14 +14 1012.6 962.3
З 1 н/о н/о +13.6 +13.6 100 +14 +14 1012.6 962.1
штиль 0 н/о н/о +13.4 +13.4 100 +13 +13 1012.7 962.2
штиль 0 н/о н/о +13.5 +13.5 100 +13 +13 1012.9 962.4
В 1 н/о н/о +15.5 +15.5 100 +16 +16 1012.4 962.3
ЮВ 1 15 км ясно +17.6 +16.6 94 +19 +25 1011.9 962.1 +13.5 25
Ю 2 20 км 3/0
[Ac trans Ci fib]
+19.4 +15.7 79 +22 +30 комфорт 1011.6 962.2
З 1 20 км 3/0
[Ac trans Ci fib]
+21.6 +15.9 70 +25 +40 комфорт 1011.2 962.2
Ю 2 20 км 4/0 2000 м +23.1 +16.1 65 +28 +41 душно 1010.5 961.8
Ю 2 20 км 5/0
[Ac trans Ci fib]
+24.1 +16.4 62 +28 +42 душно 1009.3 960.8
Ю 3 20 км 5/0
[Ac trans Ci fib]
+24.8 +16.0 58 +28 +40 жарко 1008.1 959.8
ЮЗ 3 20 км 9/9 600 м
[Cu Sc]
+25.0 +15.9 57 +28 +30 жарко 1008.1 959.8
ЮЗ 4 20 км 9/9 600 м
[Cu Sc]
+23.2 +15.2 61 +27 +28 душно 1008.6 960.0
В 4 20 км 9/9 600 м
[Cu Sc]
+20.1 +15.3 74 +23 +23 комфорт 1010.1 960.9
СВ 4 20 км 8/8 600 м
[Cu Sc]
+18.7 +16.0 84 +20 +20 1010.8 961.3
В 3 20 км 9/9 600 м
[Cu Sc]
+18.3 +16.3 88 +19 +19 1010.9 961.3
В 2 20 км гроза без осадков 9/9 600 м
[Cb cap]
+17.5 +16.7 95 +18 +18 1010.9 961.2
В 1 20 км в посл. час гроза 9/9 600 м
[Cu Sc]
+16.8 +16.5 98 +18 +18 1011.1 961.2 +25.6
СВ 1 н/о н/о +16.0 +16.0 100 +17 +17 1012.2 962.2
СВ 1 н/о н/о +15.3 +15.3 100 +16 +16 1013.1 962.9
СВ 1 н/о н/о +14.1 +14.1 100 +14 +14 1013.8 963.4
СВ 2 н/о н/о +13.9 +13.9 100 +13 +13 1013.8 963.3
штиль 0 н/о н/о +13.2 +13.2 100 +13 +13 1014.0 963.4
штиль 0 н/о н/о +12.1 +12.1 100 +11 +11 1014.6 963.8 0.1
В 1 н/о н/о +12.3 +12.3 100 +12 +12 1014.2 963.4
штиль 0 н/о н/о +11.9 +11.9 100 +11 +11 1014.5 963.6
В 1 н/о н/о +10.8 +10.8 100 +10 +10 1015.1 964.0
штиль 0 н/о н/о +11.0 +11.0 100 +10 +10 1015.6 964.5
В 1 н/о н/о +11.1 +11.1 100 +11 +11 1016.0 964.8
СВ 1 20 км 5/4 600 м
[Cu Sc Ac trans]
+13.3 +13.3 100 +13 +17 1015.2 964.5 +10.6
СВ 2 20 км 5/4 600 м
[Cu Sc Ac trans]
+17.3 +16.2 93 +18 +23 1014.4 964.5
СВ 4 20 км 6/5 600 м
[Cu Sc Ac trans]
+18.0 +15.8 87 +18 +22 1014.8 965.0
В 2 20 км 6/5 600 м
[Cu Sc Ac trans]
+20.0 +15.0 73 +23 +30 комфорт 1013.7 964.3
В 3 20 км 6/5 600 м
[Cu Sc Ac trans]
+19.5 +13.9 70 +21 +28 комфорт 1013.8 964.3
В 3 20 км 6/5 600 м
[Cu Sc Ac trans]
+21.6 +12.5 56 +24 +31 комфорт 1013.4 964.3
В 2 20 км 9/9 600 м
[Cu Sc]
+20.3 +13.4 65 +23 +25 комфорт 1014.0 964.6
З 2 20 км 9/9 600 м
[Cu Sc]
+19.3 +12.8 66 +21 +23 комфорт 1014.2 964.6
СВ 3 20 км 9/9 600 м
[Cu Sc]
+18.6 +12.7 69 +19 +20 1015.5 965.7
СВ 3 20 км 6/5 600 м
[Cu Sc Ac trans]
+17.3 +11.8 70 +17 +19 1015.0 965.0
В 3 20 км 3/1 600 м
[Cu hum Ac trans]
+18.6 +13.2 71 +19 +21 1014.6 964.9
СВ 2 20 км 3/1 600 м
[Cu hum Ac trans]
+18.0 +13.6 75 +19 +19 1014.9 965.1
С 3 20 км 1/0 2000 м
[Ac trans]
+16.9 +14.3 85 +17 +17 1015.6 965.5 +22.0
СВ 1 н/о н/о +15.5 +15.5 100 +16 +16 1016.7 966.4
С 1 н/о н/о +14.9 +14.9 100 +15 +15 1017.3 966.8
С 1 н/о н/о +14.3 +14.3 100 +15 +15 1017.6 967.0
СВ 1 н/о н/о +14.0 +14.0 100 +14 +14 1017.7 967.1
В 1 н/о н/о +11.5 +11.5 100 +11 +11 1018.5 967.3
штиль 0 н/о н/о +11.5 +11.5 100 +11 +11 1018.6 967.4
СВ 1 н/о н/о +11.3 +11.3 100 +11 +11 1018.5 967.3
Ю 1 н/о н/о +10.4 +10.4 100 +10 +10 1018.9 967.5
В 1 н/о н/о +11.1 +11.1 100 +11 +11 1018.8 967.6
штиль 0 н/о н/о +13.0 +13.0 100 +12 +12 1018.6 967.7
Ю 1 20 км 4/3 600 м
[Cu hum Ac trans]
+13.9 +13.7 99 +14 +18 1018.9 968.1 +12.2
Ю 1 20 км 8/8 600 м
[Cu Sc]
+16.2 +15.9 98 +17 +19 1018.5 968.2
штиль 0 20 км 9/9 600 м
[Cu Sc]
+16.4 +15.7 96 +16 +18 1018.5 968.2
штиль 0 20 км 9/9 600 м
[Cu Sc]
+16.4 +15.4 94 +16 +19 1018.8 968.5
В 2 20 км 8/8 600 м
[Cu Sc]
+20.6 +15.3 72 +24 +28 комфорт 1017.6 968.1
В 2 20 км 9/9 600 м
[Cu Sc]
+20.6 +10.9 54 +23 +25 комфорт 1017.4 967.9
ЮВ 1 20 км 6/6 600 м
[Cu Sc]
+22.2 +11.3 50 +24 +33 комфорт 1016.6 967.4
ЮВ 1 20 км 6/6 600 м
[Cu Sc]
+21.6 +10.5 49 +23 +30 комфорт 1016.6 967.3
С 3 20 км 3/3 600 м
[Cu hum]
+23.8 +9.2 39 +25 +30 комфорт 1015.7 966.9
СВ 2 20 км 5/1 600 м
[Cu med, cong Ac trans]
+22.3 +10.4 47 +24 +28 комфорт 1016.2 967.1
С 2 20 км 8/1 600 м
[Cu hum Ac As]
+21.3 +12.3 56 +23 +25 комфорт 1016.4 967.1
С 2 20 км 5/1 600 м
[Cu hum Ac As]
+21.0 +12.5 58 +24 +24 комфорт 1016.7 967.3
СВ 1 20 км 1/1 600 м
[Cu hum]
+18.8 +14.0 74 +21 +21 комфорт 1017.5 967.7 +22.4
штиль 0 н/о н/о +16.2 +16.2 100 +16 +16 1018.5 968.3
СВ 1 н/о н/о +16.1 +16.1 100 +17 +17 1019.0 968.7
СВ 1 н/о н/о +14.5 +14.5 100 +15 +15 1019.4 968.7
СВ 2 н/о н/о +13.6 +13.6 100 +13 +13 1019.8 968.9
СВ 2 н/о н/о +13.2 +13.2 100 +12 +12 1019.7 968.8
СВ 1 н/о н/о +12.5 +12.5 100 +12 +12 1019.4 968.4
штиль 0 н/о н/о +11.3 +11.3 100 +11 +11 1019.8 968.5
штиль 0 н/о н/о +9.9 +9.9 100 +9 +9 1019.8 968.3
ЮВ 1 н/о н/о +9.8 +9.8 100 +9 +9 1020.0 968.4
Ю 1 н/о н/о +12.6 +12.6 100 +12 +12 1019.6 968.6
В 1 10 км ясно +13.7 +12.0 89 +14 +21 1020.2 969.3 +9.4
В 1 10 км 1/1 600 м
[Cu hum]
+17.4 +15.3 87 +18 +29 1018.1 968.0
Ю 1 15 км 1/1 600 м
[Cu hum]
+19.4 +14.5 73 +22 +37 комфорт 1017.3 967.6
ЮВ 1 15 км 3/3 600 м
[Cu hum]
+21.4 +14.3 64 +24 +38 комфорт 1016.3 967.0
ЮЗ 2 15 км 3/3 600 м
[Cu med, cong]
+23.1 +14.3 58 +27 +40 душно 1015.6 966.6
Ю 2 15 км 4/4 600 м
[Cu med, cong]
+24.1 +13.1 50 +26 +38 жарко 1014.9 966.1
ЮВ 4 15 км гроза без осадков 9/9 1000 м
[Cb cap]
+23.0 +13.1 54 +26 +27 жарко 1014.6 965.7
Ю 2 15 км гроза без осадков 9/9 1000 м
[Cb cap]
+21.2 +13.2 60 +24 +25 комфорт 1014.8 965.5
Ю 2 20 км в посл. час гроза 9/9 600 м
[Cu Sc]
+20.6 +13.7 65 +24 +25 комфорт 1014.4 965.1
Ю 2 20 км {гроза} 9/9 600 м
[Cu Sc]
+22.5 +13.1 55 +25 +26 комфорт 1013.2 964.2
В 1 20 км 8/8 600 м
[Cu Sc]
+22.9 +14.4 59 +27 +27 душно 1012.8 963.9
СВ 2 25 км 5/3 1000 м
[Sc Ac trans]
+22.4 +14.7 62 +26 +26 жарко 1012.7 963.8
СВ 1 20 км 4/4 1000 м
[Sc]
+20.6 +15.8 74 +25 +25 комфорт 1013.3 964.0 +24.3
штиль 0 н/о н/о +17.8 +16.7 93 +18 +18 1014.9 965.1
штиль 0 н/о н/о +17.3 +17.3 100 +17 +17 1015.2 965.3
штиль 0 н/о н/о +16.0 +16.0 100 +16 +16 1015.7 965.5
СВ 1 н/о н/о +16.0 +16.0 100 +17 +17 1015.4 965.3
СВ 1 н/о н/о +15.8 +15.8 100 +16 +16 1015.6 965.4
штиль 0 н/о н/о +14.6 +14.6 100 +14 +14 1015.7 965.3
Ю 1 н/о н/о +14.9 +14.9 100 +15 +15 1015.8 965.4
В 2 н/о н/о +14.6 +14.6 100 +14 +14 1015.8 965.3
Местоположение метеостанции Вране (Черногория): широта 42.55 долгота 21.92 высота над уровнем моря 434 м.
В архиве по умолчанию представлена погода во Вране за последнюю неделю. Архивные данные за месяц целиком и за предыдущие месяцы, начиная с января 2011 года, Вы можете получить, выбрав интересующий диапазон дат из раскрывающегося списка и нажав кнопку "Найти!".
*Определитесь, кто Вы:
Внимание! Время в таблицах - всемирное. Для получения местного времени необходимо прибавить поправку, которая равна 1 ч.
Некоторые строки с данными для отдельных станций могут быть выделены курсивом. Это означает, что фактические данные отсутствуют по различным причинам, а приведенные значения являются расчетными модельными данными для данного пункта наблюдений.
Смотрите также архив погоды в соседних городах и на ближайших метеорологических станциях:
Партнеры нашего сайта:      
Пояснения к столбцам:
  • Ветер - указаны скорость ветра в м/с - средняя за 10 мин, порывы в срок и между сроками (в фигурных скобках) и направление, откуда дует ветер: С - северный,
  • СВ - северо-восточный, В - восточный, ЮВ - юго-восточный, Ю - южный, ЮЗ - юго-западный, З - западный, СЗ - северо-западный.
  • Видимость - горизонтальная дальность видимости в метрах или километрах. При видимости от 1 до 10 км при отсутствии осадков обычно наблюдается дымка, при ухудшении видимости до 1 км и менее - туман. В сухую погоду видимость может ухудшаться дымом, пылью или мглою.
  • Явления - указаны атмосферные явления, наблюдавшиеся в срок или в последний час перед сроком; фигурными скобками обозначены явления, наблюдавшиеся между сроками (за 1-3 часа до срока); квадратными скобками обозначены град или гололедные отложения с указанием их диаметра в мм.
  • Облачность - указаны через наклонную черту общая и нижняя облачность в баллах и высота нижней границы облаков в метрах; квадратными скобками обозначены формы облаков: Ci - перистые, Cs - перисто-слоистые, Cc - перисто-кучевые, Ac - высококучевые, As - высокослоистые, Sc - слоисто-кучевые, Ns - слоисто-дождевые, Cu - кучевые, Cb - кучево-дождевые. Подробнее классификацию облаков см. в Атласе облаков (PDF).
  • T - Температура воздуха - температура, измеренная на высоте 2 м над землей.
  • Td - Температура точки росы - температура, при понижении до которой содержащийся в воздухе водяной пар достигнет насыщения.
  • f - Относительная влажность воздуха - влажноcть воздуха, измеренная на высоте 2 м над землей.
  • Te - Эффективная температура - температура, которую ощущает одетый по сезону человек в тени. Характеристика душности погоды. При расчете учитывается влияние влажности воздуха и скорости ветра на теплоощущения человека.
  • Tes - Эффективная температура на солнце - температура, которую ощущает человек, с поправкой на солнечный нагрев. Характеристика знойности погоды. Зависит от высоты солнца над горизонтом, облачности и скорости ветра. Ночью, в пасмурную погоду, а также при ветре 12 м/с и более поправка равна нулю.
  • P - Атмосферное давление - приведенное к уровню моря атмосферное давление.
  • Po - Атмосферное давление - измеренное на уровне метеостанции атмосферное давление.
  • Tmin - Минимальная температура - минимум температуры воздуха на высоте 2 м над землей.
  • Tmax - Максимальная температура - максимум температуры воздуха на высоте 2 м над землей.
  • R - Количество осадков - Количество выпавших осадков за период времени, мм. При наведении курсора мыши на число - период времени, за который выпало указанное количество осадков.
  • R24 - Количество осадков - Количество выпавших осадков за 24 часа, мм.
  • S - Снежный покров - Высота снежного покрова, см. При наведении курсора мыши на число - состояние снежного покрова и степень покрытия местности в баллах.